Location: El Águila
(10.4167°N, 66.7167°W)
Time: 05:39:16
(UTC+00:00)

Cosmos 2360 Rocket - Pass Details

Date: 02 October 2022
Orbit: 835 x 843 km, 71.0° (Epoch: 26 November)

Event Time Altitude Azimuth Distance (km) Brightness Sun altitude
Rises 23:14:06 0° 185° (S) 3,388 5.4 -14.9°
Reaches altitude 10° 23:16:36 10° 180° (S) 2,452 4.6 -15.6°
Maximum altitude 23:22:03 52° 105° (ESE) 1,038 2.3 -16.9°
Drops below altitude 10° 23:27:28 10° 30° (NNE) 2,447 4.3 -18.2°
Enters shadow 23:28:49 - 27° (NNE) 2,943 4.8 -18.6°
